| time (UTC) | temp F | wind direction | speed MPH | gust MPH | rain 1hr in | rain 24hr in | rain mn in | humidity % | barometer mb |
| 20260904221524 | 95 | 103 | 6.0 | 11.0 | 0.00 | 0.03 | 0.03 | 39 | 1010.1 |
| 20260904220020 | 95 | 145 | 5.0 | 9.0 | 0.00 | 0.03 | 0.03 | 37 | 1010.1 |
| 20260904214521 | 95 | 28 | 4.0 | 15.0 | 0.00 | 0.03 | 0.03 | 38 | 1010.3 |
| 20260904213017 | 95 | 167 | 3.0 | 7.0 | 0.00 | 0.03 | 0.03 | 40 | 1010.5 |
| 20260904211513 | 95 | 217 | 2.0 | 11.0 | 0.00 | 0.03 | 0.03 | 43 | 1010.6 |
| 20260904210011 | 94 | 80 | 5.0 | 10.0 | 0.00 | 0.03 | 0.03 | 41 | 1010.7 |
| 20260904204510 | 93 | 127 | 5.0 | 10.0 | 0.00 | 0.03 | 0.03 | 40 | 1011.0 |
| 20260904203004 | 92 | 113 | 4.0 | 12.0 | 0.00 | 0.03 | 0.03 | 43 | 1011.1 |
| 20260904201503 | 91 | 156 | 5.0 | 9.0 | 0.00 | 0.03 | 0.03 | 47 | 1011.4 |
| 20260904200004 | 91 | 105 | 4.0 | 9.0 | 0.00 | 0.03 | 0.03 | 46 | 1011.5 |
| 20260904194503 | 92 | 146 | 5.0 | 14.0 | 0.00 | 0.03 | 0.03 | 48 | 1011.7 |
| 20260904193002 | 91 | 107 | 6.0 | 12.0 | 0.00 | 0.03 | 0.03 | 47 | 1011.9 |
| 20260904191600 | 91 | 175 | 5.0 | 13.0 | 0.00 | 0.03 | 0.03 | 49 | 1011.9 |
| 20260904190058 | 92 | 145 | 4.0 | 11.0 | 0.00 | 0.03 | 0.03 | 53 | 1012.1 |
| 20260904184557 | 92 | 142 | 3.0 | 9.0 | 0.00 | 0.03 | 0.03 | 54 | 1012.3 |
| 20260904183112 | 92 | 142 | 5.0 | 10.0 | 0.00 | 0.03 | 0.03 | 58 | 1012.4 |
| 20260904181555 | 91 | 135 | 6.0 | 13.0 | 0.00 | 0.03 | 0.03 | 57 | 1012.4 |
| 20260904180056 | 92 | 115 | 6.0 | 12.0 | 0.00 | 0.03 | 0.03 | 58 | 1012.6 |
| 20260904174554 | 92 | 125 | 4.0 | 11.0 | 0.00 | 0.03 | 0.03 | 58 | 1012.6 |
| 20260904173053 | 91 | 158 | 5.0 | 10.0 | 0.00 | 0.03 | 0.03 | 59 | 1012.7 |
| 20260904171551 | 92 | 136 | 3.0 | 10.0 | 0.00 | 0.03 | 0.03 | 58 | 1012.9 |
| 20260904170047 | 91 | 121 | 5.0 | 9.0 | 0.00 | 0.03 | 0.03 | 62 | 1013.0 |
| 20260904164546 | 91 | 151 | 4.0 | 9.0 | 0.00 | 0.03 | 0.03 | 60 | 1013.0 |
| 20260904163041 | 90 | 211 | 1.0 | 6.0 | 0.00 | 0.03 | 0.03 | 67 | 1012.9 |
| 20260904161541 | 89 | 233 | 3.0 | 7.0 | 0.00 | 0.03 | 0.03 | 67 | 1012.8 |
| 20260904160034 | 88 | 153 | 3.0 | 10.0 | 0.00 | 0.03 | 0.03 | 69 | 1012.9 |
| 20260904154531 | 87 | 229 | 4.0 | 8.0 | 0.00 | 0.03 | 0.03 | 71 | 1012.8 |
| 20260904153027 | 85 | 184 | 2.0 | 9.0 | 0.01 | 0.03 | 0.03 | 77 | 1012.8 |
| 20260904151526 | 82 | 144 | 3.0 | 7.0 | 0.01 | 0.03 | 0.03 | 83 | 1012.8 |
| 20260904150025 | 81 | 189 | 1.0 | 5.0 | 0.01 | 0.03 | 0.03 | 86 | 1012.7 |
| 20260904144515 | 80 | 161 | 4.0 | 8.0 | 0.01 | 0.03 | 0.03 | 89 | 1012.6 |
| 20260904143011 | 79 | 165 | 1.0 | 5.0 | 0.00 | 0.02 | 0.02 | 92 | 1012.5 |
| 20260904141511 | 79 | 149 | 2.0 | 6.0 | 0.00 | 0.02 | 0.02 | 92 | 1012.5 |
| 20260904140009 | 78 | 232 | 1.0 | 8.0 | 0.01 | 0.02 | 0.02 | 92 | 1012.5 |
| 20260904134517 | 78 | 159 | 1.0 | 4.0 | 0.02 | 0.02 | 0.02 | 92 | 1012.4 |
| 20260904133008 | 78 | 211 | 2.0 | 6.0 | 0.02 | 0.02 | 0.02 | 92 | 1012.3 |
| 20260904131509 | 78 | 225 | 1.0 | 4.0 | 0.02 | 0.02 | 0.02 | 91 | 1012.4 |
| 20260904130009 | 78 | 182 | 0.0 | 4.0 | 0.01 | 0.01 | 0.01 | 91 | 1012.5 |
| 20260904124505 | 78 | 134 | 1.0 | 5.0 | 0.00 | 0.00 | 0.00 | 90 | 1012.5 |
| 20260904123009 | 78 | 162 | 1.0 | 4.0 | 0.00 | 0.00 | 0.00 | 89 | 1012.5 |
| 20260904121501 | 79 | 44 | 2.0 | 4.0 | 0.00 | 0.00 | 0.00 | 88 | 1012.4 |
| 20260904120111 | 79 | 95 | 1.0 | 5.0 | 0.00 | 0.00 | 0.00 | 88 | 1012.2 |
| 20260904114555 | 79 | 81 | 2.0 | 7.0 | 0.00 | 0.00 | 0.00 | 87 | 1012.0 |
| 20260904113052 | 79 | 103 | 2.0 | 5.0 | 0.00 | 0.00 | 0.00 | 87 | 1011.5 |
| 20260904111549 | 79 | 173 | 1.0 | 7.0 | 0.00 | 0.00 | 0.00 | 86 | 1011.3 |
| 20260904110053 | 79 | 175 | 4.0 | 9.0 | 0.00 | 0.00 | 0.00 | 86 | 1011.3 |
| 20260904104548 | 79 | 180 | 2.0 | 9.0 | 0.00 | 0.00 | 0.00 | 86 | 1011.2 |
| 20260904103047 | 79 | 126 | 2.0 | 8.0 | 0.00 | 0.00 | 0.00 | 86 | 1011.0 |
| 20260904101545 | 79 | 144 | 2.0 | 5.0 | 0.00 | 0.00 | 0.00 | 86 | 1011.1 |
| 20260904100047 | 79 | 163 | 2.0 | 4.0 | 0.00 | 0.00 | 0.00 | 85 | 1011.0 |
| 20260904094544 | 79 | 136 | 2.0 | 7.0 | 0.00 | 0.00 | 0.00 | 85 | 1010.8 |
| 20260904093043 | 79 | 165 | 3.0 | 7.0 | 0.00 | 0.00 | 0.00 | 84 | 1010.8 |
| 20260904091542 | 80 | 156 | 2.0 | 8.0 | 0.00 | 0.00 | 0.00 | 84 | 1010.8 |
| 20260904090040 | 80 | 162 | 3.0 | 8.0 | 0.00 | 0.00 | 0.00 | 84 | 1010.9 |
| 20260904084540 | 80 | 155 | 2.0 | 7.0 | 0.00 | 0.00 | 0.00 | 84 | 1010.9 |
| 20260904083041 | 80 | 163 | 2.0 | 8.0 | 0.00 | 0.00 | 0.00 | 84 | 1010.8 |
| 20260904081548 | 80 | 143 | 7.0 | 11.0 | 0.00 | 0.00 | 0.00 | 84 | 1011.0 |
| 20260904080040 | 80 | 125 | 2.0 | 11.0 | 0.00 | 0.00 | 0.00 | 83 | 1011.0 |
| 20260904074539 | 80 | 217 | 4.0 | 9.0 | 0.00 | 0.00 | 0.00 | 83 | 1010.9 |
| 20260904073035 | 80 | 147 | 4.0 | 12.0 | 0.00 | 0.00 | 0.00 | 83 | 1010.9 |
| 20260904071534 | 80 | 132 | 4.0 | 9.0 | 0.00 | 0.00 | 0.00 | 83 | 1011.0 |
| 20260904070033 | 80 | 158 | 2.0 | 8.0 | 0.00 | 0.00 | 0.00 | 83 | 1011.2 |
| 20260904064531 | 80 | 177 | 4.0 | 9.0 | 0.00 | 0.00 | 0.00 | 83 | 1011.3 |
| 20260904063033 | 80 | 175 | 3.0 | 10.0 | 0.00 | 0.00 | 0.00 | 82 | 1011.2 |
| 20260904061540 | 80 | 119 | 4.0 | 11.0 | 0.00 | 0.00 | 0.00 | 82 | 1011.1 |
| 20260904060028 | 80 | 153 | 3.0 | 10.0 | 0.00 | 0.00 | 0.00 | 82 | 1011.2 |
| 20260904054628 | 80 | 192 | 5.0 | 10.0 | 0.00 | 0.00 | 0.00 | 82 | 1011.0 |
| 20260904053025 | 80 | 145 | 4.0 | 10.0 | 0.00 | 0.00 | 0.00 | 82 | 1011.1 |
| 20260904051523 | 80 | 150 | 5.0 | 10.0 | 0.00 | 0.00 | 0.00 | 82 | 1011.0 |
| 20260904050020 | 80 | 134 | 3.0 | 11.0 | 0.00 | 0.00 | 0.00 | 81 | 1010.9 |
| 20260904044534 | 80 | 154 | 4.0 | 11.0 | 0.00 | 0.00 | 0.00 | 81 | 1010.9 |
| 20260904043028 | 80 | 167 | 6.0 | 11.0 | 0.00 | 0.00 | 0.00 | 80 | 1010.8 |
| 20260904041521 | 80 | 129 | 3.0 | 11.0 | 0.00 | 0.00 | 0.00 | 79 | 1010.9 |
| 20260904040017 | 81 | 131 | 5.0 | 11.0 | 0.00 | 0.00 | 0.00 | 78 | 1011.0 |
| 20260904034516 | 81 | 126 | 4.0 | 9.0 | 0.00 | 0.00 | 0.00 | 77 | 1010.8 |
| 20260904033115 | 81 | 144 | 4.0 | 11.0 | 0.00 | 0.00 | 0.00 | 76 | 1010.8 |
| 20260904031515 | 81 | 138 | 5.0 | 13.0 | 0.00 | 0.00 | 0.00 | 75 | 1010.7 |
| 20260904030020 | 82 | 134 | 2.0 | 9.0 | 0.00 | 0.00 | 0.00 | 74 | 1010.6 |
| 20260904024516 | 82 | 123 | 5.0 | 12.0 | 0.00 | 0.00 | 0.00 | 73 | 1010.4 |
| 20260904023013 | 82 | 175 | 6.0 | 14.0 | 0.00 | 0.00 | 0.00 | 72 | 1010.2 |
| 20260904021521 | 82 | 136 | 3.0 | 8.0 | 0.00 | 0.00 | 0.00 | 70 | 1010.2 |
| 20260904020012 | 83 | 132 | 3.0 | 9.0 | 0.00 | 0.00 | 0.00 | 70 | 1009.9 |
| 20260904014511 | 83 | 122 | 4.0 | 9.0 | 0.00 | 0.00 | 0.00 | 69 | 1009.6 |
| 20260904013011 | 83 | 144 | 5.0 | 11.0 | 0.00 | 0.00 | 0.00 | 69 | 1009.6 |
| 20260904011510 | 84 | 133 | 7.0 | 13.0 | 0.00 | 0.00 | 0.00 | 68 | 1009.6 |
| 20260904010010 | 84 | 141 | 5.0 | 13.0 | 0.00 | 0.00 | 0.00 | 68 | 1009.5 |
| 20260904004509 | 85 | 131 | 6.0 | 13.0 | 0.00 | 0.00 | 0.00 | 67 | 1009.3 |
| 20260904003008 | 86 | 102 | 7.0 | 12.0 | 0.00 | 0.00 | 0.00 | 66 | 1009.3 |
| 20260904001508 | 86 | 119 | 7.0 | 13.0 | 0.00 | 0.00 | 0.00 | 66 | 1009.2 |
| 20260904000007 | 87 | 115 | 7.0 | 18.0 | 0.00 | 0.00 | 0.00 | 66 | 1009.1 |
| 20260903234517 | 88 | 140 | 6.0 | 15.0 | 0.00 | 0.00 | 0.00 | 66 | 1009.0 |
| 20260903233005 | 89 | 93 | 8.0 | 16.0 | 0.00 | 0.00 | 0.00 | 64 | 1008.8 |
| 20260903231504 | 90 | 145 | 10.0 | 19.0 | 0.00 | 0.00 | 0.00 | 64 | 1008.8 |
| 20260903230008 | 91 | 126 | 8.0 | 16.0 | 0.00 | 0.00 | 0.00 | 64 | 1008.5 |
| 20260903224508 | 92 | 102 | 7.0 | 16.0 | 0.00 | 0.00 | 0.00 | 61 | 1008.4 |
| 20260903223002 | 93 | 138 | 6.0 | 18.0 | 0.00 | 0.00 | 0.00 | 58 | 1008.3 |